EW8926 Weather Reports


Display with metric or nautical units.
time (UTC)temp
F
wind
direction
speed
MPH
gust
MPH
rain 1hr
in
rain 24hr
in
rain mn
in
humidity
%
barometer
mb
20260905053604 70 130 0.0 2.0 0.00 0.00 0.00 80 1017.8
20260905052604 70 130 0.0 2.0 0.00 0.00 0.00 77 1017.8
20260905051604 70 130 0.0 0.0 0.00 0.00 0.00 74 1017.7
20260905051104 70 130 0.0 0.0 0.00 0.00 0.00 74 1017.7
20260905050604 70 130 0.0 0.0 0.00 0.00 0.00 74 1017.6
20260905050104 70 130 0.0 0.0 0.00 0.00 0.00 73 1017.6
20260905045604 70 130 0.0 0.0 0.00 0.00 0.00 72 1017.6
20260905045103 70 130 0.0 0.0 0.00 0.00 0.00 71 1017.3
20260905044603 69 130 0.0 2.0 0.00 0.00 0.00 70 1017.3
20260905044104 69 130 0.0 2.0 0.00 0.00 0.00 69 1017.3
20260905043604 70 130 0.0 0.0 0.00 0.00 0.00 67 1017.2
20260905043104 70 130 0.0 0.0 0.00 0.00 0.00 66 1017.2
20260905042104 70 130 0.0 2.0 0.00 0.00 0.00 66 1017.5
20260905041604 70 130 0.0 2.0 0.00 0.00 0.00 65 1017.5
20260905041104 70 130 0.0 1.0 0.00 0.00 0.00 65 1017.5
20260905040604 70 130 0.0 2.0 0.00 0.00 0.00 64 1017.5
20260905040104 70 130 0.0 0.0 0.00 0.00 0.00 63 1017.5
20260905035604 70 130 0.0 0.0 0.00 0.00 0.00 62 1017.5
20260905035103 70 130 1.0 1.0 0.00 0.00 0.00 61 1017.4
20260905034604 70 130 1.0 2.0 0.00 0.00 0.00 60 1017.4
20260905034104 70 130 0.0 3.0 0.00 0.00 0.00 59 1017.4
20260905033604 70 133 0.0 3.0 0.00 0.00 0.00 59 1017.5
20260905033104 70 134 0.0 2.0 0.00 0.00 0.00 57 1017.5
20260905032604 70 134 0.0 2.0 0.00 0.00 0.00 58 1017.5
20260905032104 70 135 0.0 2.0 0.00 0.00 0.00 58 1017.4
20260905031603 70 134 0.0 1.0 0.00 0.00 0.00 59 1017.4
20260905030604 70 134 0.0 2.0 0.00 0.00 0.00 59 1017.5
20260905030104 70 134 0.0 1.0 0.00 0.00 0.00 58 1017.5
20260905025104 70 134 0.0 0.0 0.00 0.00 0.00 59 1017.8
20260905024604 71 134 0.0 2.0 0.00 0.00 0.00 58 1017.8
20260905024104 71 134 0.0 1.0 0.00 0.00 0.00 59 1017.8
20260905023604 71 135 0.0 2.0 0.00 0.00 0.00 58 1017.7
20260905023104 71 134 0.0 2.0 0.00 0.00 0.00 57 1017.7
20260905021603 71 134 0.0 2.0 0.00 0.00 0.00 57 1017.7
20260905020104 71 134 1.0 2.0 0.00 0.00 0.00 57 1017.6
20260905015603 71 134 1.0 1.0 0.00 0.00 0.00 56 1017.6
20260905015104 71 135 2.0 2.0 0.00 0.00 0.00 56 1017.9
20260905014104 72 134 2.0 3.0 0.00 0.00 0.00 55 1017.9
20260905013104 72 135 2.0 2.0 0.00 0.00 0.00 53 1017.8
20260905012603 72 134 2.0 5.0 0.00 0.00 0.00 53 1017.8
20260905012103 73 139 1.0 5.0 0.00 0.00 0.00 52 1018.0
20260905011603 73 151 1.0 2.0 0.00 0.00 0.00 51 1018.0
20260905011103 73 152 0.0 2.0 0.00 0.00 0.00 50 1018.0
20260905010604 74 152 0.0 2.0 0.00 0.00 0.00 50 1017.9
20260905010104 74 152 0.0 2.0 0.00 0.00 0.00 49 1017.9
20260905005103 74 152 0.0 0.0 0.00 0.00 0.00 47 1017.9
20260905004104 75 152 2.0 0.0 0.00 0.00 0.00 46 1017.9
20260905003604 75 152 2.0 1.0 0.00 0.00 0.00 46 1017.9
20260905003104 75 152 1.0 3.0 0.00 0.00 0.00 46 1017.9
20260905002604 75 142 0.0 3.0 0.00 0.00 0.00 45 1017.9
20260905002104 75 158 0.0 0.0 0.00 0.00 0.00 45 1017.9
20260905001603 75 158 0.0 2.0 0.00 0.00 0.00 45 1017.9
20260905001104 75 158 0.0 1.0 0.00 0.00 0.00 44 1017.9
20260905000603 75 158 0.0 2.0 0.00 0.00 0.00 44 1017.9
20260904235104 76 152 1.0 2.0 0.00 0.00 0.00 44 1017.8
20260904234104 76 157 0.0 2.0 0.00 0.00 0.00 44 1017.8
20260904233104 77 157 0.0 2.0 0.00 0.00 0.00 43 1018.0
20260904232603 77 157 0.0 2.0 0.00 0.00 0.00 42 1018.0
20260904232105 77 174 0.0 3.0 0.00 0.00 0.00 41 1018.1
20260904231604 77 201 0.0 2.0 0.00 0.00 0.00 41 1018.1
20260904231104 78 201 2.0 2.0 0.00 0.00 0.00 40 1018.1
20260904225605 78 163 2.0 5.0 0.00 0.00 0.00 39 1018.1
20260904225104 78 129 2.0 5.0 0.00 0.00 0.00 38 1017.9
20260904224106 78 158 1.0 3.0 0.00 0.00 0.00 37 1017.9
20260904223604 78 160 1.0 5.0 0.00 0.00 0.00 36 1017.9
20260904221605 78 153 2.0 2.0 0.00 0.00 0.00 36 1018.0
20260904221105 78 153 2.0 5.0 0.00 0.00 0.00 36 1018.0
20260904220606 78 139 2.0 5.0 0.00 0.00 0.00 36 1018.0
20260904220105 78 130 2.0 3.0 0.00 0.00 0.00 37 1018.0
20260904215604 78 142 2.0 5.0 0.00 0.00 0.00 37 1018.0
20260904215104 78 142 2.0 5.0 0.00 0.00 0.00 37 1017.9
20260904214606 78 179 2.0 3.0 0.00 0.00 0.00 37 1017.9
20260904214103 78 112 2.0 5.0 0.00 0.00 0.00 38 1017.9
20260904213603 78 127 2.0 5.0 0.00 0.00 0.00 38 1018.0
20260904212604 79 144 2.0 3.0 0.00 0.00 0.00 38 1018.0
20260904212104 79 137 2.0 5.0 0.00 0.00 0.00 37 1018.1
20260904211104 79 164 2.0 5.0 0.00 0.00 0.00 37 1018.1
20260904210104 79 148 2.0 3.0 0.00 0.00 0.00 36 1018.3
20260904205103 79 135 2.0 3.0 0.00 0.00 0.00 34 1018.3
20260904203604 79 178 2.0 3.0 0.00 0.00 0.00 33 1018.4
20260904203104 79 147 2.0 5.0 0.00 0.00 0.00 33 1018.4
20260904202606 79 141 2.0 3.0 0.00 0.00 0.00 33 1018.4
20260904202103 79 156 1.0 6.0 0.00 0.00 0.00 32 1018.2
20260904201604 79 169 1.0 5.0 0.00 0.00 0.00 33 1018.2
20260904201105 80 171 1.0 2.0 0.00 0.00 0.00 32 1018.2
20260904200604 80 171 1.0 2.0 0.00 0.00 0.00 33 1018.2
20260904200105 80 195 2.0 3.0 0.00 0.00 0.00 32 1018.2
20260904195604 80 133 2.0 3.0 0.00 0.00 0.00 33 1018.2
20260904195104 80 128 2.0 2.0 0.00 0.00 0.00 33 1018.1
20260904194604 80 157 2.0 6.0 0.00 0.00 0.00 33 1018.1
20260904194104 80 127 2.0 5.0 0.00 0.00 0.00 33 1018.1
20260904193604 81 131 2.0 3.0 0.00 0.00 0.00 33 1018.1
20260904193104 81 137 2.0 6.0 0.00 0.00 0.00 33 1018.1
20260904192103 81 147 2.0 6.0 0.00 0.00 0.00 33 1018.1
20260904191604 81 148 2.0 5.0 0.00 0.00 0.00 33 1018.1
20260904191104 81 160 2.0 6.0 0.00 0.00 0.00 33 1018.1
20260904190605 81 169 2.0 5.0 0.00 0.00 0.00 34 1018.0
20260904190104 81 116 2.0 5.0 0.00 0.00 0.00 34 1018.0
20260904185604 82 173 2.0 7.0 0.00 0.00 0.00 35 1018.0
20260904185104 82 164 2.0 6.0 0.00 0.00 0.00 35 1017.8
20260904184604 82 124 2.0 6.0 0.00 0.00 0.00 35 1017.8
20260904183604 82 160 2.0 8.0 0.00 0.00 0.00 35 1017.6
20260904183104 82 153 4.0 7.0 0.00 0.00 0.00 34 1017.6
20260904181604 83 118 3.0 7.0 0.00 0.00 0.00 33 1017.6
20260904181104 83 149 3.0 10.0 0.00 0.00 0.00 32 1017.6
20260904180604 83 129 3.0 8.0 0.00 0.00 0.00 32 1017.5
20260904180104 83 144 3.0 8.0 0.00 0.00 0.00 32 1017.5
20260904175604 83 160 3.0 13.0 0.00 0.00 0.00 32 1017.5
20260904175103 84 139 3.0 7.0 0.00 0.00 0.00 31 1017.6
20260904174604 84 127 3.0 6.0 0.00 0.00 0.00 30 1017.6
20260904174104 84 134 4.0 7.0 0.00 0.00 0.00 29 1017.6
20260904173604 84 114 5.0 5.0 0.00 0.00 0.00 29 1017.6
20260904173104 85 127 5.0 9.0 0.00 0.00 0.00 28 1017.6
20260904172604 85 144 5.0 8.0 0.00 0.00 0.00 28 1017.6
20260904172104 85 138 3.0 10.0 0.00 0.00 0.00 28 1017.7
20260904171604 85 147 3.0 7.0 0.00 0.00 0.00 28 1017.7
20260904170104 86 141 4.0 10.0 0.00 0.00 0.00 29 1017.8
20260904165103 87 127 3.0 7.0 0.00 0.00 0.00 28 1017.8
20260904164604 87 158 3.0 8.0 0.00 0.00 0.00 28 1017.8
20260904164104 87 145 4.0 8.0 0.00 0.00 0.00 28 1017.8
20260904163604 87 124 5.0 8.0 0.00 0.00 0.00 28 1017.8
20260904162104 88 124 3.0 6.0 0.00 0.00 0.00 28 1018.0
20260904161108 89 136 3.0 6.0 0.00 0.00 0.00 28 1018.0
20260904160604 89 134 3.0 7.0 0.00 0.00 0.00 27 1018.1
20260904160104 90 145 3.0 7.0 0.00 0.00 0.00 27 1018.1
20260904155604 91 122 3.0 9.0 0.00 0.00 0.00 27 1018.1
20260904155104 91 145 4.0 8.0 0.00 0.00 0.00 27 1018.0
20260904154604 91 134 5.0 7.0 0.00 0.00 0.00 26 1018.0
20260904154104 91 148 3.0 6.0 0.00 0.00 0.00 26 1018.0
20260904153604 91 123 3.0 8.0 0.00 0.00 0.00 24 1018.0
20260904153104 92 131 4.0 8.0 0.00 0.00 0.00 24 1018.0
20260904152604 92 125 5.0 8.0 0.00 0.00 0.00 24 1018.0
20260904152104 92 165 5.0 6.0 0.00 0.00 0.00 25 1018.2
20260904151604 92 136 5.0 9.0 0.00 0.00 0.00 24 1018.2
20260904151104 92 145 5.0 9.0 0.00 0.00 0.00 24 1018.2
20260904150604 92 128 5.0 10.0 0.00 0.00 0.00 24 1018.1
20260904150105 92 135 5.0 13.0 0.00 0.00 0.00 23 1018.1
20260904145104 92 128 5.0 9.0 0.00 0.00 0.00 25 1018.2
20260904144104 93 131 5.0 9.0 0.00 0.00 0.00 26 1018.2
20260904143604 93 136 5.0 14.0 0.00 0.00 0.00 26 1018.2
20260904143104 93 132 5.0 14.0 0.00 0.00 0.00 26 1018.2
20260904142604 94 119 5.0 10.0 0.00 0.00 0.00 27 1018.2
20260904142104 94 134 5.0 12.0 0.00 0.00 0.00 26 1018.4
20260904141604 94 121 5.0 9.0 0.00 0.00 0.00 26 1018.4
20260904141104 94 132 5.0 9.0 0.00 0.00 0.00 27 1018.4
20260904140604 94 126 6.0 9.0 0.00 0.00 0.00 27 1018.5
20260904140104 94 122 5.0 13.0 0.00 0.00 0.00 27 1018.5
20260904135604 94 113 5.0 15.0 0.00 0.00 0.00 28 1018.5
20260904135104 94 182 5.0 7.0 0.00 0.00 0.00 28 1018.4
20260904133604 95 129 3.0 10.0 0.00 0.00 0.00 29 1018.5
20260904133104 94 122 5.0 8.0 0.00 0.00 0.00 29 1018.5
20260904132604 94 135 5.0 7.0 0.00 0.00 0.00 29 1018.5
20260904132104 94 120 6.0 9.0 0.00 0.00 0.00 28 1018.6
20260904131606 94 126 6.0 9.0 0.00 0.00 0.00 29 1018.6
20260904131104 94 143 5.0 12.0 0.00 0.00 0.00 29 1018.6
20260904130604 94 126 5.0 12.0 0.00 0.00 0.00 28 1018.7
20260904130104 94 116 7.0 13.0 0.00 0.00 0.00 29 1018.7
20260904125604 94 122 7.0 10.0 0.00 0.00 0.00 29 1018.7
20260904125104 94 123 6.0 10.0 0.00 0.00 0.00 30 1018.8
20260904124604 94 93 6.0 14.0 0.00 0.00 0.00 29 1018.8
20260904123604 94 160 7.0 9.0 0.00 0.00 0.00 31 1018.8
20260904123105 94 135 6.0 13.0 0.00 0.00 0.00 31 1018.8
20260904122604 94 111 6.0 15.0 0.00 0.00 0.00 31 1018.8
20260904122104 94 123 5.0 13.0 0.00 0.00 0.00 32 1018.9
20260904121604 94 124 5.0 9.0 0.00 0.00 0.00 34 1018.9
20260904121104 94 133 3.0 17.0 0.00 0.00 0.00 38 1018.9
20260904120104 93 47 2.0 6.0 0.00 0.00 0.00 38 1019.3
20260904115604 93 347 2.0 5.0 0.00 0.00 0.00 40 1019.3
20260904115104 93 95 2.0 6.0 0.00 0.00 0.00 39 1019.4
20260904114604 92 310 2.0 5.0 0.00 0.00 0.00 40 1019.4
20260904114104 92 304 2.0 5.0 0.00 0.00 0.00 40 1019.4
20260904113604 92 304 2.0 5.0 0.00 0.00 0.00 40 1019.6
20260904113104 92 272 2.0 5.0 0.00 0.00 0.00 40 1019.6
20260904112604 92 204 2.0 5.0 0.00 0.00 0.00 40 1019.6
20260904112104 92 358 2.0 6.0 0.00 0.00 0.00 40 1019.7
20260904111604 92 298 2.0 5.0 0.00 0.00 0.00 41 1019.7
20260904111104 92 118 2.0 3.0 0.00 0.00 0.00 41 1019.7
20260904110605 91 252 2.0 3.0 0.00 0.00 0.00 41 1019.9
20260904110104 91 298 2.0 7.0 0.00 0.00 0.00 41 1019.9
20260904105604 91 135 2.0 6.0 0.00 0.00 0.00 41 1019.9
20260904105104 90 17 2.0 3.0 0.00 0.00 0.00 42 1020.0
20260904104604 90 292 2.0 5.0 0.00 0.00 0.00 44 1020.0
20260904103604 89 356 2.0 5.0 0.00 0.00 0.00 43 1020.3
20260904103104 89 282 2.0 5.0 0.00 0.00 0.00 42 1020.3
20260904102104 89 292 2.0 3.0 0.00 0.00 0.00 43 1020.4
20260904101604 89 22 2.0 5.0 0.00 0.00 0.00 43 1020.4
20260904101104 89 329 2.0 3.0 0.00 0.00 0.00 43 1020.4
20260904100604 89 339 2.0 5.0 0.00 0.00 0.00 43 1020.6
20260904100104 89 338 2.0 5.0 0.00 0.00 0.00 43 1020.6
20260904095604 89 327 2.0 3.0 0.00 0.00 0.00 44 1020.6
20260904095104 88 24 2.0 3.0 0.00 0.00 0.00 44 1020.7
20260904094104 88 284 2.0 5.0 0.00 0.00 0.00 45 1020.7
20260904093604 88 357 2.0 3.0 0.00 0.00 0.00 45 1020.8
20260904093104 87 44 2.0 5.0 0.00 0.00 0.00 45 1020.8
20260904092604 87 83 2.0 2.0 0.00 0.00 0.00 46 1020.8
20260904092104 87 87 2.0 5.0 0.00 0.00 0.00 46 1020.8
20260904091104 86 158 2.0 3.0 0.00 0.00 0.00 48 1020.8
20260904090604 86 268 2.0 3.0 0.00 0.00 0.00 48 1020.9
20260904090104 86 148 2.0 2.0 0.00 0.00 0.00 49 1020.9
20260904085104 85 123 2.0 5.0 0.00 0.00 0.00 50 1020.9
20260904084604 85 137 2.0 3.0 0.00 0.00 0.00 50 1020.9
20260904084104 84 277 2.0 2.0 0.00 0.00 0.00 51 1020.9
20260904083604 84 125 2.0 5.0 0.00 0.00 0.00 52 1020.9
20260904083104 84 218 2.0 5.0 0.00 0.00 0.00 52 1020.9
20260904082604 83 204 2.0 5.0 0.00 0.00 0.00 52 1020.9
20260904081104 82 149 2.0 3.0 0.00 0.00 0.00 53 1021.0
20260904080604 82 307 2.0 3.0 0.00 0.00 0.00 54 1021.1
20260904080104 82 129 1.0 3.0 0.00 0.00 0.00 54 1021.1
20260904075604 82 238 1.0 3.0 0.00 0.00 0.00 55 1021.1
20260904075108 81 306 2.0 2.0 0.00 0.00 0.00 55 1020.9
20260904074605 81 307 2.0 3.0 0.00 0.00 0.00 55 1020.9
20260904073604 81 126 1.0 5.0 0.00 0.00 0.00 55 1020.9
20260904073104 81 297 1.0 2.0 0.00 0.00 0.00 56 1020.9
20260904072604 80 295 1.0 2.0 0.00 0.00 0.00 58 1020.9
20260904072104 80 295 0.0 5.0 0.00 0.00 0.00 58 1021.0
20260904071604 79 205 0.0 2.0 0.00 0.00 0.00 60 1021.0
20260904071106 79 132 2.0 2.0 0.00 0.00 0.00 62 1021.0
20260904070604 78 132 2.0 2.0 0.00 0.00 0.00 63 1020.9
20260904065604 77 130 0.0 2.0 0.00 0.00 0.00 66 1020.9
20260904065104 76 137 2.0 2.0 0.00 0.00 0.00 67 1020.8
20260904064603 75 136 2.0 2.0 0.00 0.00 0.00 69 1020.8
20260904064104 73 136 1.0 2.0 0.00 0.00 0.00 71 1020.8
20260904063604 72 136 1.0 2.0 0.00 0.00 0.00 74 1020.7
20260904063103 71 144 0.0 2.0 0.00 0.00 0.00 76 1020.7
20260904062603 70 144 0.0 2.0 0.00 0.00 0.00 78 1020.7
20260904061604 68 144 0.0 2.0 0.00 0.00 0.00 79 1020.7
20260904061104 68 144 1.0 1.0 0.00 0.00 0.00 79 1020.7
20260904060605 68 144 1.0 0.0 0.00 0.00 0.00 80 1020.5
20260904060104 67 144 2.0 1.0 0.00 0.00 0.00 81 1020.5
20260904055604 67 144 2.0 2.0 0.00 0.00 0.00 81 1020.5
20260904055104 67 144 2.0 2.0 0.00 0.00 0.00 81 1020.3
20260904054104 66 144 2.0 2.0 0.00 0.00 0.00 81 1020.3